Location: Trois-Rivi�res
(46.3500°N, 72.5500°W)
Time: 03:50:35
(UTC-04:00)

Tiangong 1 - Pass Details

Date: 09 October 2017
Orbit: 292 x 319 km, 42.8° (Epoch: 23 October)

Event Time Altitude Azimuth Distance (km) Brightness Sun altitude
Rises 19:09:34 0° 251° (WSW) 2,041 6.3 -10.4°
Reaches altitude 10° 19:11:39 10° 242° (WSW) 1,206 4.6 -10.7°
Maximum altitude 19:14:09 34° 174° (S) 531 1.7 -11.1°
Enters shadow 19:15:35 19° 118° (ESE) 814 2.2 -11.4°
